This is the latest recevied weather packets stored in our database for station/object K5SVV. If no packets are shown the sender has not sent any weather packets the latest 10 day(s).
| Time | Temp. | Humidity | Pressure | Rain* | Wind** | Luminosity | Snow |
|---|---|---|---|---|---|---|---|
| 1788529331 | 25° C | 97% | 1014.1 hPa | 0 mm | - | 154 W/m² | - |
| 1788529025 | 25° C | 97% | 1014.5 hPa | 0 mm | - | 81 W/m² | - |
| 1788528722 | 25° C | 97% | 1014.2 hPa | 0 mm | - | 98 W/m² | - |
| 1788528421 | 24.44° C | 97% | 1014.1 hPa | 0 mm | - | 74 W/m² | - |
| 1788528116 | 24.44° C | 97% | 1014 hPa | 0 mm | - | 99 W/m² | - |
| 1788527815 | 24.44° C | 97% | 1013.8 hPa | 0 mm | - | 82 W/m² | - |
| 1788527511 | 24.44° C | 97% | 1013.8 hPa | 0 mm | - | 86 W/m² | - |
| 1788527211 | 24.44° C | 97% | 1013.8 hPa | 0 mm | - | 77 W/m² | - |
| 1788526911 | 24.44° C | 97% | 1013.6 hPa | 0 mm | - | 69 W/m² | - |
| 1788526607 | 23.89° C | 97% | 1013.9 hPa | 0 mm | - | 66 W/m² | - |
| 1788526302 | 23.89° C | 97% | 1013.8 hPa | 0 mm | - | 60 W/m² | - |
| 1788525997 | 23.89° C | 97% | 1013.4 hPa | 0 mm | - | 57 W/m² | - |
| 1788525693 | 23.89° C | 97% | 1013.5 hPa | 0 mm | - | 52 W/m² | - |
| 1788525393 | 23.89° C | 97% | 1013.2 hPa | 0 mm | - | 39 W/m² | - |
| 1788525089 | 23.89° C | 97% | 1013.4 hPa | 0 mm | - | 25 W/m² | - |
| 1788524783 | 23.89° C | 97% | 1013.3 hPa | 0 mm | - | 16 W/m² | - |
| 1788524478 | 23.89° C | 97% | 1013.4 hPa | 0 mm | - | 11 W/m² | - |
| 1788524174 | 23.89° C | 97% | 1013.3 hPa | 0 mm | - | 7 W/m² | - |
| 1788523869 | 23.89° C | 97% | 1013.4 hPa | 0 mm | - | 4 W/m² | - |
| 1788523565 | 23.89° C | 97% | 1013.2 hPa | 0 mm | - | 1 W/m² | - |
| 1788523261 | 23.89° C | 97% | 1013.1 hPa | 0 mm | - | 0 W/m² | - |
| 1788522956 | 23.89° C | 97% | 1013 hPa | 0 mm | - | 0 W/m² | - |
| 1788522650 | 23.89° C | 96% | 1013.2 hPa | 0 mm | - | 0 W/m² | - |
| 1788522345 | 23.89° C | 96% | 1013 hPa | 0 mm | - | 0 W/m² | - |
| 1788522044 | 23.89° C | 96% | 1013.3 hPa | 0 mm | - | 0 W/m² | - |
* Rain latest hour (hover to see other rain measurements)
** Current wind speed in m/s (hover to see current wind gust speed)